Russellville, AR

3:29 PM CDT on October 19, 2019 (GMT -0500)
Russellville Regional

Weather History for KRUE - August, 2019

Change the Weather History Date:

Friday, August 30, 2019

  Actual Average (KHOT) Record (KHOT)
Temperature  
Mean Temperature 78 °F -  
Max Temperature 86 °F 92 °F 111 °F (1954)
Min Temperature 69 °F 66 °F 52 °F (1986)
Cooling Degree Days 12    
Growing Degree Days 28 (Base 50)    
Moisture  
Dew Point 68 °F    
Average Humidity 77    
Maximum Humidity 91    
Minimum Humidity 56    
Precipitation  
Precipitation 0.01 in - - ()
Sea Level Pressure  
Sea Level Pressure 30.03 in    
Wind  
Wind Speed 3 mph (West)    
Max Wind Speed 12 mph    
Max Gust Speed 20 mph    
Visibility 9 miles    
Events Rain    
Averages and records for this station are not official NWS values.
T = Trace of Precipitation, MM = Missing Value Source: NWS Daily Summary

Daily Weather History Graph

Daily Weather History Graph

Search for Another Location

Airport or City:

Astronomy

Aug. 30, 2019 Rise Set
Actual Time 6:43 AM CDT 7:42 PM CDT
Civil Twilight 6:17 AM CDT 8:08 PM CDT
Nautical Twilight 5:46 AM CDT 8:39 PM CDT
Astronomical Twilight 5:14 AM CDT 9:10 PM CDT
Moon 6:46 AM CDT (8/30) 8:18 PM CDT (8/30)
Length of Visible Light 13h 51m
Length of Day
12h 59m
New Moon, 0% of the Moon is Illuminated
Aug 30
New Moon
Sep 5
First Quarter
Sep 13
Full
Sep 21
Last Quarter
Sep 28
New

Hourly Weather History & Observations

Time (CDT) Temp. Heat Index Dew Point Humidity Pressure Visibility Wind Dir Wind Speed Gust Speed Precip Events Conditions
12:53 AM 72.0 °F - 66.9 °F 84% 30.02 in 10.0 mi Calm Calm - N/A   Clear
1:53 AM 72.0 °F - 66.9 °F 84% 30.02 in 10.0 mi Calm Calm - N/A   Clear
2:53 AM 70.0 °F - 66.9 °F 90% 30.01 in 10.0 mi Calm Calm - N/A   Clear
3:53 AM 69.1 °F - 66.0 °F 90% 30.03 in 10.0 mi Calm Calm - N/A   Clear
4:53 AM 70.0 °F - 66.0 °F 87% 30.04 in 10.0 mi Calm Calm - N/A   Clear
5:53 AM 71.1 °F - 66.0 °F 84% 30.03 in 10.0 mi Calm Calm - N/A   Clear
6:53 AM 70.0 °F - 64.9 °F 84% 30.04 in 10.0 mi Calm Calm - N/A   Clear
7:53 AM 72.0 °F - 66.0 °F 81% 30.09 in 10.0 mi NW 4.6 mph - N/A   Overcast
8:09 AM 72.0 °F - 66.0 °F 81% 30.12 in 1.8 mi West 5.8 mph - 0.00 in Rain Rain
8:21 AM 72.0 °F - 66.0 °F 81% 30.11 in 3.0 mi WNW 4.6 mph - N/A Rain Rain
8:53 AM 73.0 °F - 66.0 °F 79% 30.08 in 10.0 mi West 3.5 mph - N/A   Overcast
9:53 AM 78.1 °F - 66.9 °F 68% 30.04 in 10.0 mi Variable 5.8 mph - 0.01 in   Clear
11:53 AM 79.0 °F - 70.0 °F 74% 30.01 in 10.0 mi SW 4.6 mph - N/A   Clear
12:53 PM 82.0 °F 86.3 °F 71.1 °F 69% 29.99 in 10.0 mi SW 5.8 mph - N/A   Clear
1:53 PM 86.0 °F 90.7 °F 70.0 °F 59% 30.00 in 10.0 mi WNW 9.2 mph - N/A   Clear
2:53 PM 84.0 °F 87.8 °F 69.1 °F 61% 30.01 in 10.0 mi NW 9.2 mph - N/A   Clear
3:53 PM 84.0 °F 86.5 °F 66.9 °F 56% 30.01 in 10.0 mi WNW 11.5 mph 19.6 mph N/A   Clear
4:53 PM 82.9 °F 85.4 °F 66.9 °F 58% 30.00 in 10.0 mi West 10.4 mph - N/A   Clear
5:53 PM 81.0 °F 84.1 °F 69.1 °F 67% 30.00 in 10.0 mi West 9.2 mph - N/A   Clear
6:53 PM 81.0 °F 83.8 °F 68.0 °F 65% 30.01 in 10.0 mi West 4.6 mph - N/A   Clear
7:53 PM 78.1 °F - 68.0 °F 71% 30.01 in 10.0 mi NW 4.6 mph - N/A   Clear
8:53 PM 73.0 °F - 69.1 °F 87% 30.02 in 10.0 mi Calm Calm - N/A   Clear
9:53 PM 72.0 °F - 69.1 °F 91% 30.05 in 10.0 mi Calm Calm - N/A   Clear
10:53 PM 73.9 °F - 68.0 °F 82% 30.06 in 10.0 mi Calm Calm - N/A   Clear
11:53 PM 71.1 °F - 68.0 °F 90% 30.05 in 10.0 mi Calm Calm - N/A   Clear